| time (UTC) | temp F | wind direction | speed MPH | gust MPH | rain 1hr in | rain 24hr in | rain mn in | humidity % | barometer mb |
| 20260507194518 | 62 | 94 | 2.0 | 6.0 | 0.00 | 0.00 | 0.00 | 59 | 1019.1 |
| 20260507193036 | 62 | 190 | 0.0 | 5.0 | 0.00 | 0.00 | 0.00 | 61 | 1019.3 |
| 20260507191512 | 62 | 57 | 1.0 | 5.0 | 0.00 | 0.00 | 0.00 | 60 | 1019.5 |
| 20260507190010 | 60 | 82 | 1.0 | 4.0 | 0.00 | 0.00 | 0.00 | 61 | 1019.6 |
| 20260507184511 | 59 | 300 | 1.0 | 6.0 | 0.00 | 0.00 | 0.00 | 62 | 1019.8 |
| 20260507183009 | 60 | 20 | 1.0 | 5.0 | 0.00 | 0.00 | 0.00 | 63 | 1019.8 |
| 20260507181506 | 60 | 82 | 1.0 | 5.0 | 0.00 | 0.00 | 0.00 | 63 | 1019.8 |
| 20260507180006 | 59 | 16 | 3.0 | 6.0 | 0.00 | 0.00 | 0.00 | 64 | 1020.0 |
| 20260507174504 | 59 | 80 | 1.0 | 5.0 | 0.00 | 0.00 | 0.00 | 64 | 1020.1 |
| 20260507173003 | 58 | 51 | 1.0 | 4.0 | 0.00 | 0.00 | 0.00 | 63 | 1020.1 |
| 20260507171604 | 57 | 82 | 0.0 | 5.0 | 0.00 | 0.00 | 0.00 | 64 | 1020.1 |
| 20260507170056 | 57 | 82 | 0.0 | 3.0 | 0.00 | 0.00 | 0.00 | 65 | 1020.1 |
| 20260507164556 | 56 | 38 | 1.0 | 3.0 | 0.00 | 0.00 | 0.00 | 65 | 1020.1 |
| 20260507163053 | 56 | 38 | 0.0 | 4.0 | 0.00 | 0.00 | 0.00 | 65 | 1020.1 |
| 20260507161601 | 55 | 65 | 1.0 | 4.0 | 0.00 | 0.00 | 0.00 | 64 | 1020.2 |
| 20260507160048 | 55 | 55 | 1.0 | 6.0 | 0.00 | 0.00 | 0.00 | 64 | 1020.3 |
| 20260507154545 | 54 | 32 | 0.0 | 4.0 | 0.00 | 0.00 | 0.00 | 64 | 1020.4 |
| 20260507153057 | 53 | 32 | 1.0 | 4.0 | 0.00 | 0.00 | 0.00 | 64 | 1020.4 |
| 20260507151541 | 53 | 49 | 0.0 | 3.0 | 0.00 | 0.00 | 0.00 | 63 | 1020.4 |
| 20260507150046 | 53 | 64 | 0.0 | 3.0 | 0.00 | 0.00 | 0.00 | 63 | 1020.4 |
| 20260507144539 | 52 | 304 | 0.0 | 3.0 | 0.00 | 0.00 | 0.00 | 62 | 1020.4 |
| 20260507143035 | 52 | 303 | 0.0 | 3.0 | 0.00 | 0.00 | 0.00 | 62 | 1020.3 |
| 20260507141534 | 52 | 243 | 0.0 | 2.0 | 0.00 | 0.00 | 0.00 | 59 | 1020.2 |
| 20260507140034 | 51 | 249 | 0.0 | 0.0 | 0.00 | 0.00 | 0.00 | 59 | 1020.0 |
| 20260507134532 | 51 | 249 | 0.0 | 2.0 | 0.00 | 0.00 | 0.00 | 58 | 1020.0 |
| 20260507133032 | 51 | 249 | 0.0 | 1.0 | 0.00 | 0.00 | 0.00 | 58 | 1020.0 |
| 20260507131533 | 51 | 249 | 0.0 | 2.0 | 0.00 | 0.00 | 0.00 | 58 | 1020.0 |
| 20260507130052 | 51 | 275 | 0.0 | 1.0 | 0.00 | 0.00 | 0.00 | 54 | 1020.2 |
| 20260507124529 | 51 | 275 | 0.0 | 1.0 | 0.00 | 0.00 | 0.00 | 49 | 1020.1 |
| 20260507123029 | 51 | 275 | 0.0 | 0.0 | 0.00 | 0.00 | 0.00 | 47 | 1020.1 |
| 20260507121527 | 51 | 275 | 0.0 | 0.0 | 0.00 | 0.00 | 0.00 | 48 | 1020.2 |
| 20260507120034 | 52 | 275 | 0.0 | 0.0 | 0.00 | 0.00 | 0.00 | 49 | 1020.4 |
| 20260507114524 | 51 | 275 | 0.0 | 2.0 | 0.00 | 0.00 | 0.00 | 50 | 1020.4 |
| 20260507113023 | 51 | 275 | 0.0 | 0.0 | 0.00 | 0.00 | 0.00 | 50 | 1020.5 |
| 20260507111521 | 52 | 275 | 0.0 | 0.0 | 0.00 | 0.00 | 0.00 | 52 | 1020.6 |
| 20260507110024 | 52 | 275 | 0.0 | 1.0 | 0.00 | 0.00 | 0.00 | 54 | 1020.6 |
| 20260507104519 | 52 | 275 | 0.0 | 2.0 | 0.00 | 0.00 | 0.00 | 55 | 1020.6 |
| 20260507103020 | 52 | 275 | 0.0 | 1.0 | 0.00 | 0.00 | 0.00 | 54 | 1020.7 |
| 20260507101518 | 52 | 275 | 0.0 | 2.0 | 0.00 | 0.00 | 0.00 | 55 | 1020.8 |
| 20260507100021 | 52 | 274 | 0.0 | 1.0 | 0.00 | 0.00 | 0.00 | 55 | 1020.9 |
| 20260507094512 | 52 | 274 | 0.0 | 2.0 | 0.00 | 0.00 | 0.00 | 55 | 1020.9 |
| 20260507093011 | 52 | 274 | 0.0 | 3.0 | 0.00 | 0.00 | 0.00 | 56 | 1021.1 |
| 20260507091509 | 52 | 273 | 0.0 | 0.0 | 0.00 | 0.00 | 0.00 | 55 | 1021.2 |
| 20260507090008 | 52 | 273 | 0.0 | 2.0 | 0.00 | 0.00 | 0.00 | 57 | 1021.3 |
| 20260507084507 | 52 | 273 | 0.0 | 2.0 | 0.00 | 0.00 | 0.00 | 56 | 1021.4 |
| 20260507083007 | 52 | 273 | 0.0 | 2.0 | 0.00 | 0.00 | 0.00 | 57 | 1021.2 |
| 20260507081505 | 51 | 273 | 0.0 | 2.0 | 0.00 | 0.00 | 0.00 | 57 | 1021.3 |
| 20260507080004 | 51 | 290 | 0.0 | 3.0 | 0.00 | 0.00 | 0.00 | 58 | 1021.3 |
| 20260507074505 | 51 | 283 | 0.0 | 3.0 | 0.00 | 0.00 | 0.00 | 58 | 1021.3 |
| 20260507073002 | 51 | 280 | 1.0 | 4.0 | 0.00 | 0.00 | 0.00 | 58 | 1021.4 |
| 20260507071600 | 51 | 271 | 0.0 | 3.0 | 0.00 | 0.00 | 0.00 | 58 | 1021.3 |
| 20260507071501 | 51 | 271 | 0.0 | 3.0 | 0.00 | 0.00 | 0.00 | 58 | 1021.3 |
| 20260507064554 | 51 | 271 | 0.0 | 3.0 | 0.00 | 0.00 | 0.00 | 59 | 1021.2 |
| 20260507063051 | 51 | 273 | 0.0 | 6.0 | 0.00 | 0.00 | 0.00 | 59 | 1021.2 |
| 20260507061545 | 51 | 278 | 0.0 | 4.0 | 0.00 | 0.00 | 0.00 | 58 | 1021.2 |
| 20260507060040 | 51 | 5 | 0.0 | 3.0 | 0.00 | 0.00 | 0.00 | 58 | 1021.3 |
| 20260507054541 | 51 | 312 | 0.0 | 6.0 | 0.00 | 0.00 | 0.00 | 60 | 1021.1 |
| 20260507053032 | 51 | 162 | 0.0 | 3.0 | 0.00 | 0.00 | 0.00 | 58 | 1021.2 |
| 20260507051527 | 51 | 83 | 0.0 | 2.0 | 0.00 | 0.00 | 0.00 | 59 | 1021.3 |
| 20260507050032 | 51 | 118 | 0.0 | 4.0 | 0.00 | 0.00 | 0.00 | 60 | 1021.2 |
| 20260507044523 | 52 | 211 | 0.0 | 3.0 | 0.00 | 0.00 | 0.00 | 61 | 1021.2 |
| 20260507043014 | 52 | 211 | 0.0 | 3.0 | 0.00 | 0.00 | 0.00 | 62 | 1021.0 |
| 20260507041523 | 53 | 271 | 1.0 | 6.0 | 0.00 | 0.00 | 0.00 | 64 | 1020.9 |
| 20260507040006 | 53 | 254 | 0.0 | 3.0 | 0.00 | 0.00 | 0.00 | 65 | 1020.6 |
| 20260507034501 | 54 | 252 | 1.0 | 4.0 | 0.00 | 0.00 | 0.00 | 67 | 1020.5 |
| 20260507033057 | 55 | 311 | 0.0 | 5.0 | 0.00 | 0.00 | 0.00 | 69 | 1020.2 |
| 20260507031553 | 56 | 290 | 0.0 | 3.0 | 0.00 | 0.00 | 0.00 | 69 | 1020.1 |
| 20260507030048 | 57 | 299 | 0.0 | 3.0 | 0.00 | 0.00 | 0.00 | 69 | 1019.9 |
| 20260507024556 | 58 | 286 | 0.0 | 7.0 | 0.00 | 0.00 | 0.00 | 69 | 1019.8 |
| 20260507023042 | 59 | 301 | 1.0 | 5.0 | 0.00 | 0.00 | 0.00 | 69 | 1019.8 |
| 20260507021536 | 61 | 277 | 1.0 | 6.0 | 0.00 | 0.00 | 0.00 | 67 | 1019.8 |
| 20260507020036 | 62 | 346 | 1.0 | 5.0 | 0.00 | 0.00 | 0.00 | 65 | 1019.8 |
| 20260507014539 | 63 | 74 | 0.0 | 5.0 | 0.00 | 0.00 | 0.00 | 65 | 1019.8 |
| 20260507013026 | 64 | 285 | 2.0 | 6.0 | 0.00 | 0.00 | 0.00 | 64 | 1019.8 |
| 20260507011520 | 65 | 296 | 1.0 | 6.0 | 0.00 | 0.00 | 0.00 | 63 | 1019.8 |
| 20260507010014 | 65 | 311 | 3.0 | 8.0 | 0.00 | 0.00 | 0.00 | 63 | 1019.8 |
| 20260507004525 | 66 | 296 | 1.0 | 5.0 | 0.00 | 0.00 | 0.00 | 63 | 1019.7 |
| 20260507003005 | 67 | 295 | 2.0 | 7.0 | 0.00 | 0.00 | 0.00 | 61 | 1019.7 |
| 20260507001501 | 67 | 312 | 2.0 | 6.0 | 0.00 | 0.00 | 0.00 | 61 | 1019.6 |
| 20260507000057 | 68 | 289 | 3.0 | 7.0 | 0.00 | 0.00 | 0.00 | 60 | 1019.5 |
| 20260506234600 | 69 | 300 | 2.0 | 6.0 | 0.00 | 0.00 | 0.00 | 60 | 1019.4 |
| 20260506233047 | 70 | 300 | 2.0 | 6.0 | 0.00 | 0.00 | 0.00 | 58 | 1019.4 |
| 20260506231551 | 70 | 322 | 1.0 | 4.0 | 0.00 | 0.00 | 0.00 | 58 | 1019.4 |
| 20260506230052 | 69 | 230 | 1.0 | 8.0 | 0.00 | 0.00 | 0.00 | 59 | 1019.5 |
| 20260506224535 | 69 | 332 | 0.0 | 3.0 | 0.00 | 0.00 | 0.00 | 61 | 1019.6 |
| 20260506223044 | 69 | 263 | 0.0 | 4.0 | 0.00 | 0.00 | 0.00 | 58 | 1019.7 |
| 20260506221525 | 67 | 182 | 1.0 | 5.0 | 0.00 | 0.00 | 0.00 | 60 | 1019.9 |
| 20260506220024 | 68 | 182 | 2.0 | 6.0 | 0.00 | 0.00 | 0.00 | 59 | 1020.1 |
| 20260506214517 | 67 | 316 | 1.0 | 6.0 | 0.00 | 0.00 | 0.00 | 60 | 1019.9 |
| 20260506213014 | 66 | 218 | 1.0 | 4.0 | 0.00 | 0.00 | 0.00 | 61 | 1020.1 |
| 20260506211632 | 66 | 258 | 1.0 | 6.0 | 0.00 | 0.00 | 0.00 | 60 | 1020.1 |
| 20260506210002 | 64 | 55 | 0.0 | 4.0 | 0.00 | 0.00 | 0.00 | 64 | 1020.4 |
| 20260506204600 | 64 | 315 | 1.0 | 5.0 | 0.00 | 0.00 | 0.00 | 62 | 1020.5 |
| 20260506203054 | 63 | 306 | 1.0 | 7.0 | 0.00 | 0.00 | 0.00 | 63 | 1020.7 |
| 20260506201559 | 63 | 288 | 1.0 | 4.0 | 0.00 | 0.00 | 0.00 | 63 | 1020.6 |
| 20260506200044 | 63 | 215 | 1.0 | 5.0 | 0.00 | 0.00 | 0.00 | 62 | 1020.6 |